| time (UTC) | temp F | wind direction | speed MPH | gust MPH | rain 1hr in | rain 24hr in | rain mn in | humidity % | barometer mb |
| 20260506171515 | 60 | 210 | 1.0 | 9.0 | 0.03 | 0.10 | 0.10 | 95 | 1005.0 |
| 20260506170013 | 60 | 211 | 0.0 | 7.0 | 0.06 | 0.10 | 0.10 | 95 | 1005.1 |
| 20260506164510 | 61 | 211 | 1.0 | 9.0 | 0.06 | 0.09 | 0.09 | 95 | 1005.1 |
| 20260506163008 | 61 | 184 | 0.0 | 5.0 | 0.06 | 0.09 | 0.09 | 94 | 1005.4 |
| 20260506161506 | 61 | 237 | 0.0 | 1.0 | 0.05 | 0.06 | 0.06 | 94 | 1006.0 |
| 20260506160003 | 62 | 236 | 0.0 | 6.0 | 0.04 | 0.04 | 0.04 | 93 | 1006.2 |
| 20260506154603 | 62 | 238 | 0.0 | 6.0 | 0.03 | 0.03 | 0.03 | 92 | 1006.3 |
| 20260506153103 | 63 | 222 | 0.0 | 5.0 | 0.02 | 0.02 | 0.02 | 91 | 1006.2 |
| 20260506151558 | 63 | 194 | 0.0 | 5.0 | 0.02 | 0.02 | 0.02 | 89 | 1006.2 |
| 20260506150031 | 64 | 217 | 0.0 | 6.0 | 0.00 | 0.00 | 0.00 | 84 | 1006.4 |
| 20260506144630 | 64 | 207 | 4.0 | 9.0 | 0.00 | 0.00 | 0.00 | 81 | 1006.3 |
| 20260506143032 | 64 | 200 | 2.0 | 12.0 | 0.00 | 0.00 | 0.00 | 81 | 1006.4 |
| 20260506141531 | 64 | 155 | 0.0 | 9.0 | 0.00 | 0.00 | 0.00 | 81 | 1006.2 |
| 20260506140027 | 64 | 193 | 0.0 | 8.0 | 0.00 | 0.00 | 0.00 | 81 | 1006.2 |
| 20260506134527 | 64 | 175 | 2.0 | 12.0 | 0.00 | 0.00 | 0.00 | 81 | 1006.4 |
| 20260506133026 | 64 | 221 | 2.0 | 15.0 | 0.00 | 0.00 | 0.00 | 82 | 1006.5 |
| 20260506131531 | 64 | 217 | 2.0 | 12.0 | 0.00 | 0.00 | 0.00 | 81 | 1006.7 |
| 20260506130024 | 64 | 192 | 1.0 | 9.0 | 0.00 | 0.00 | 0.00 | 82 | 1006.6 |
| 20260506124523 | 63 | 206 | 1.0 | 8.0 | 0.00 | 0.00 | 0.00 | 82 | 1006.4 |
| 20260506123024 | 63 | 209 | 0.0 | 7.0 | 0.00 | 0.00 | 0.00 | 83 | 1006.3 |
| 20260506121522 | 63 | 195 | 0.0 | 7.0 | 0.00 | 0.00 | 0.00 | 83 | 1006.4 |
| 20260506120021 | 63 | 215 | 1.0 | 9.0 | 0.00 | 0.00 | 0.00 | 84 | 1006.5 |
| 20260506114519 | 63 | 214 | 0.0 | 5.0 | 0.00 | 0.00 | 0.00 | 84 | 1006.7 |
| 20260506113019 | 63 | 234 | 0.0 | 3.0 | 0.00 | 0.00 | 0.00 | 84 | 1006.7 |
| 20260506111522 | 62 | 178 | 1.0 | 7.0 | 0.00 | 0.00 | 0.00 | 85 | 1006.6 |
| 20260506110021 | 62 | 217 | 0.0 | 9.0 | 0.00 | 0.00 | 0.00 | 85 | 1006.5 |
| 20260506104514 | 61 | 215 | 3.0 | 8.0 | 0.00 | 0.00 | 0.00 | 86 | 1006.4 |
| 20260506103014 | 61 | 200 | 1.0 | 5.0 | 0.00 | 0.00 | 0.00 | 86 | 1006.3 |
| 20260506101525 | 61 | 212 | 1.0 | 5.0 | 0.00 | 0.00 | 0.00 | 86 | 1006.5 |
| 20260506100011 | 61 | 221 | 2.0 | 7.0 | 0.00 | 0.00 | 0.00 | 86 | 1006.3 |
| 20260506094521 | 61 | 211 | 0.0 | 6.0 | 0.00 | 0.00 | 0.00 | 86 | 1006.3 |
| 20260506093014 | 61 | 230 | 0.0 | 8.0 | 0.00 | 0.00 | 0.00 | 86 | 1006.3 |
| 20260506091513 | 61 | 207 | 0.0 | 5.0 | 0.00 | 0.00 | 0.00 | 86 | 1006.5 |
| 20260506090008 | 61 | 243 | 0.0 | 7.0 | 0.00 | 0.00 | 0.00 | 86 | 1006.5 |
| 20260506084507 | 60 | 216 | 0.0 | 6.0 | 0.00 | 0.00 | 0.00 | 85 | 1006.6 |
| 20260506083007 | 60 | 233 | 0.0 | 0.0 | 0.00 | 0.00 | 0.00 | 85 | 1006.6 |
| 20260506081505 | 61 | 241 | 0.0 | 4.0 | 0.00 | 0.00 | 0.00 | 84 | 1006.6 |
| 20260506073058 | 62 | 203 | 0.0 | 7.0 | 0.00 | 0.00 | 0.00 | 80 | 1006.9 |
| 20260506071601 | 62 | 212 | 0.0 | 5.0 | 0.00 | 0.00 | 0.00 | 80 | 1006.8 |
| 20260506061549 | 63 | 228 | 0.0 | 0.0 | 0.00 | 0.00 | 0.00 | 76 | 1007.2 |
| 20260506044551 | 64 | 213 | 0.0 | 5.0 | 0.00 | 0.00 | 0.00 | 73 | 1007.7 |
| 20260506043024 | 64 | 220 | 0.0 | 7.0 | 0.00 | 0.00 | 0.00 | 72 | 1007.7 |
| 20260506041521 | 65 | 205 | 0.0 | 5.0 | 0.00 | 0.00 | 0.00 | 72 | 1007.7 |
| 20260506040020 | 65 | 207 | 0.0 | 6.0 | 0.00 | 0.00 | 0.00 | 71 | 1007.7 |
| 20260506034537 | 66 | 217 | 1.0 | 9.0 | 0.00 | 0.00 | 0.00 | 70 | 1007.7 |
| 20260506033015 | 66 | 218 | 0.0 | 8.0 | 0.00 | 0.00 | 0.00 | 70 | 1007.8 |
| 20260506031544 | 66 | 223 | 3.0 | 11.0 | 0.00 | 0.00 | 0.00 | 68 | 1007.6 |
| 20260506030042 | 66 | 212 | 2.0 | 9.0 | 0.00 | 0.00 | 0.00 | 67 | 1007.7 |
| 20260506024540 | 67 | 215 | 0.0 | 9.0 | 0.00 | 0.00 | 0.00 | 64 | 1007.6 |
| 20260506023100 | 68 | 257 | 0.0 | 4.0 | 0.00 | 0.00 | 0.00 | 61 | 1007.6 |
| 20260506021539 | 69 | 211 | 0.0 | 8.0 | 0.00 | 0.00 | 0.00 | 59 | 1007.5 |
| 20260506020139 | 69 | 198 | 1.0 | 6.0 | 0.00 | 0.00 | 0.00 | 57 | 1007.3 |
| 20260506014538 | 70 | 209 | 0.0 | 8.0 | 0.00 | 0.00 | 0.00 | 57 | 1007.2 |
| 20260506013039 | 70 | 223 | 0.0 | 9.0 | 0.00 | 0.00 | 0.00 | 55 | 1007.2 |
| 20260506011535 | 70 | 220 | 0.0 | 7.0 | 0.00 | 0.00 | 0.00 | 55 | 1007.1 |
| 20260506010038 | 71 | 226 | 0.0 | 7.0 | 0.00 | 0.00 | 0.00 | 54 | 1006.8 |
| 20260506004556 | 71 | 213 | 0.0 | 6.0 | 0.00 | 0.00 | 0.00 | 52 | 1006.8 |
| 20260506003044 | 71 | 219 | 0.0 | 6.0 | 0.00 | 0.00 | 0.00 | 49 | 1006.6 |
| 20260506001535 | 72 | 203 | 1.0 | 7.0 | 0.00 | 0.00 | 0.00 | 48 | 1006.5 |
| 20260506000031 | 72 | 232 | 0.0 | 5.0 | 0.00 | 0.00 | 0.00 | 47 | 1006.3 |
| 20260505234551 | 73 | 217 | 1.0 | 9.0 | 0.00 | 0.00 | 0.00 | 45 | 1006.2 |
| 20260505233034 | 74 | 204 | 1.0 | 8.0 | 0.00 | 0.00 | 0.00 | 45 | 1006.2 |
| 20260505231533 | 75 | 218 | 1.0 | 14.0 | 0.00 | 0.00 | 0.00 | 43 | 1006.0 |
| 20260505230037 | 76 | 182 | 2.0 | 18.0 | 0.00 | 0.00 | 0.00 | 41 | 1006.0 |
| 20260505224626 | 76 | 200 | 2.0 | 13.0 | 0.00 | 0.00 | 0.00 | 41 | 1005.8 |
| 20260505223026 | 76 | 203 | 1.0 | 11.0 | 0.00 | 0.00 | 0.00 | 40 | 1005.6 |
| 20260505221522 | 77 | 205 | 4.0 | 17.0 | 0.00 | 0.00 | 0.00 | 39 | 1005.7 |
| 20260505220029 | 78 | 189 | 6.0 | 18.0 | 0.00 | 0.00 | 0.00 | 39 | 1005.5 |
| 20260505214524 | 78 | 167 | 5.0 | 14.0 | 0.00 | 0.00 | 0.00 | 38 | 1005.5 |
| 20260505213020 | 77 | 226 | 2.0 | 12.0 | 0.00 | 0.00 | 0.00 | 38 | 1005.4 |
| 20260505211519 | 78 | 233 | 2.0 | 14.0 | 0.00 | 0.00 | 0.00 | 39 | 1005.3 |
| 20260505210018 | 79 | 223 | 2.0 | 25.0 | 0.00 | 0.00 | 0.00 | 37 | 1005.0 |
| 20260505204519 | 80 | 252 | 1.0 | 18.0 | 0.00 | 0.00 | 0.00 | 37 | 1004.8 |
| 20260505203016 | 80 | 180 | 2.0 | 16.0 | 0.00 | 0.00 | 0.00 | 39 | 1005.1 |
| 20260505201521 | 81 | 252 | 3.0 | 22.0 | 0.00 | 0.00 | 0.00 | 36 | 1005.2 |
| 20260505200015 | 81 | 194 | 2.0 | 18.0 | 0.00 | 0.00 | 0.00 | 37 | 1005.3 |
| 20260505194528 | 82 | 211 | 2.0 | 12.0 | 0.00 | 0.00 | 0.00 | 39 | 1005.2 |
| 20260505193031 | 81 | 190 | 3.0 | 13.0 | 0.00 | 0.00 | 0.00 | 39 | 1005.5 |
| 20260505191511 | 82 | 242 | 3.0 | 20.0 | 0.00 | 0.00 | 0.00 | 37 | 1005.8 |
| 20260505190010 | 82 | 219 | 4.0 | 16.0 | 0.00 | 0.00 | 0.00 | 40 | 1005.8 |
| 20260505184507 | 82 | 246 | 3.0 | 21.0 | 0.00 | 0.00 | 0.00 | 37 | 1005.9 |
| 20260505183007 | 82 | 192 | 2.0 | 17.0 | 0.00 | 0.00 | 0.00 | 37 | 1005.9 |
| 20260505181504 | 82 | 221 | 8.0 | 24.0 | 0.00 | 0.00 | 0.00 | 38 | 1006.3 |
| 20260505180058 | 81 | 221 | 4.0 | 20.0 | 0.00 | 0.00 | 0.00 | 43 | 1006.3 |
| 20260505174608 | 81 | 187 | 5.0 | 18.0 | 0.00 | 0.00 | 0.00 | 42 | 1006.6 |
| 20260505173049 | 81 | 192 | 2.0 | 11.0 | 0.00 | 0.00 | 0.00 | 45 | 1006.7 |